Location: *
(53.9002°N, 27.5624°E)
Time: 21:52:11
(UTC+00:00)

Cosmos 2263 Rocket - Pass Details

Date: 12 November 2019
Orbit: 825 x 847 km, 71.0° (Epoch: 10 December)

Event Time Altitude Azimuth Distance (km) Brightness Sun altitude
Rises 18:07:41 0° 326° (NNW) 3,380 6.0 -33.8°
Reaches altitude 10° 18:10:07 10° 326° (NW) 2,441 5.1 -34.1°
Enters shadow 18:13:25 37° 320° (NW) 1,270 3.4 -34.6°
